Temp
9 9 9 8 9 8 8 7 6 6 6 6 6 6 6 7 6 6 6 6 6 6
8 8 7 7 7 7 7 6 5 5 5 5 5 5 6 6 5 5 5 5 4 3
8 7 7 7 6 6 6 6 5 5 5 5 5 5 5 5 4 4 4 3 3 3
7 7 6 6 6 5 5 5 5 5 5 5 4 4 4 4 3 3 3 3 2 2
7 6 6 6 5 5 5 4 4 5 5 4 4 4 3 4 3 4 4 3 2 2
6 6 6 5 5 5 4 4 4 4 4 4 3 3 3 3 3 3 3 3 3 2
7 6 6 5 5 4 4 5 4 4 4 3 3 2 2 3 3 3 3 3 2 2
6 5 5 5 4 4 4 4 4 4 3 3 2 -0 -1 1 3 3 3 3 3 2
6 5 5 4 4 4 4 4 3 3 3 3 1 -1 -0 -1 3 3 3 3 3 2
6 5 5 4 4 4 4 3 3 3 3 2 0 -1 -0 -0 2 3 2 2 2 2
5 5 5 5 4 4 4 4 3 3 2 2 -0 0 -0 0 2 2 2 1 1 0
5 5 5 5 4 4 4 4 3 2 2 2 1 -0 0 -0 2 2 2 1 1 -1
5 5 5 4 4 4 4 3 3 2 1 -0 1 -2 -2 -1 1 1 1 1 1 -1
5 5 4 4 3 3 3 3 3 2 1 1 -1 -2 -3 -3 -1 -2 0 0 -0 -1
Height
859 860 862 864 864 864 863 864 863 863 862 862 862 860 858 856 855 854 852 851 850 847
860 862 863 864 864 864 865 866 865 865 865 865 863 861 859 858 856 854 854 852 851 849
861 863 864 864 865 865 866 867 867 868 868 866 864 862 861 860 858 856 855 854 852 851
861 863 864 865 866 866 866 868 869 869 869 868 866 864 863 861 859 858 857 855 854 852
859 863 864 865 867 867 868 869 870 870 870 869 868 867 864 861 860 859 857 856 855 852
860 862 865 867 867 868 869 870 870 870 871 871 870 867 865 861 860 860 858 856 854 851
859 862 864 866 868 869 870 870 870 870 872 872 870 868 864 861 860 859 857 856 854 850
858 860 863 866 868 869 869 869 869 870 871 871 869 865 861 860 860 859 857 856 852 849
856 859 863 865 867 868 868 868 870 871 871 870 868 862 859 858 860 860 857 854 851 848
854 857 860 863 865 866 867 869 870 870 870 870 867 861 859 858 860 860 857 854 851 847
852 855 858 860 863 865 867 868 869 869 869 867 864 860 859 858 859 858 855 853 850 846
848 852 855 858 861 863 865 867 867 869 867 865 864 861 858 857 858 856 853 851 848 844
845 849 852 856 859 862 864 865 867 866 865 863 865 861 859 857 857 855 852 849 846 842
843 847 851 854 858 860 862 864 865 864 863 864 864 864 860 857 857 854 852 849 845 841
Wind_Speed
11 10 9 8 8 8 9 9 9 9 10 10 10 11 10 10 11 11 11 12 12 12
10 10 10 9 9 9 9 8 8 9 9 10 11 12 11 11 13 12 12 12 13 13
10 9 10 10 11 10 9 9 9 9 9 10 12 13 12 10 12 12 12 12 14 14
11 10 10 10 10 10 10 9 9 8 9 10 11 12 11 10 12 12 12 13 13 14
11 10 10 10 9 9 9 9 9 9 9 10 10 10 11 11 11 12 13 13 13 14
12 11 11 10 10 10 10 9 9 9 8 8 9 10 11 10 11 11 11 12 14 14
14 13 12 11 11 10 10 10 9 8 7 7 9 10 12 11 10 10 11 12 13 14
15 14 13 12 11 11 10 9 8 7 6 6 9 11 14 11 10 11 12 12 13 14
17 15 14 13 12 11 10 9 7 6 6 6 7 12 14 9 9 10 12 14 15 16
18 17 15 13 12 11 10 9 7 6 5 5 7 13 14 10 8 9 11 12 14 17
19 17 15 14 12 11 10 8 6 5 4 4 6 14 15 13 8 9 10 12 13 16
20 18 16 14 13 11 9 8 7 5 5 5 5 13 14 14 10 11 12 12 13 15
20 18 17 15 12 10 9 8 7 6 6 8 5 11 13 14 10 12 13 14 15 17
20 18 17 15 12 11 9 8 7 6 6 5 4 6 12 13 9 11 12 13 15 16
Wind_Direction
120 116 109 107 108 96 84 72 63 61 60 54 46 35 34 31 23 17 14 10 3 351
125 122 117 113 100 95 90 80 72 68 64 55 42 35 36 30 21 19 13 8 3 357
128 121 118 112 108 105 96 87 79 72 66 54 40 37 35 29 21 23 18 10 3 354
132 124 119 114 110 104 99 89 80 79 71 55 47 40 35 32 28 25 17 11 1 353
134 132 123 117 114 108 107 101 91 88 77 56 48 39 33 30 26 20 14 7 0 355
148 141 136 131 122 119 114 107 96 89 80 58 43 33 28 27 25 16 9 3 360 355
153 149 142 134 131 126 120 112 102 91 89 63 46 32 23 22 20 12 7 0 355 353
156 150 144 142 136 133 126 115 104 99 92 74 48 29 21 20 11 6 2 357 356 353
158 154 152 148 145 137 124 112 109 112 105 83 41 32 26 29 6 0 355 352 353 352
162 160 156 152 146 141 134 131 119 118 111 89 44 26 30 47 7 355 353 353 351 349
165 160 157 154 150 143 144 146 136 111 111 89 27 16 29 44 5 357 357 356 354 352
165 163 161 158 155 153 147 145 136 126 103 81 40 6 19 26 3 360 359 357 354 356
167 167 163 159 155 154 150 143 148 119 98 81 56 353 16 25 5 356 356 359 357 354
168 166 162 157 157 154 151 152 141 118 98 83 67 8 9 19 16 1 354 353 351 348